www.pogodaiklimat.ru

Погода и климат >> Архив погоды >> Россия >> Чукотка >> Анадырь


АРХИВ ПОГОДЫ в Анадыре

Время (UTC), дата Ветер
(напр.,м/с)
 
Видим.   Явления Облачность Т
(С)
Тd
(С)
f
(%)
Тe
(С)
Тes
(С)
Комфортность P
(гПа)
Po
(гПа)
Тmin
(С)
Tmax
(С)
R
(мм)
R24
(мм)
S
(см)
00 14.09 ЮВ 11-14
{16}
15 км слабый ливневой дождь 10/10 300 м
[Cb cap]
+11.1 +9.9 92 +7 +7 тепло 1008.8 1001.4
03 14.09 ЮВ 12-16
{17}
20 км в посл. час ливневой дождь 9/8 300 м
[Cb cap Ac trans]
+11.3 +10.2 93 +7 +7 тепло 1006.7 999.4
06 14.09 ЮВ 13-19
{20}
20 км {ливн. осадки} 9/8 600 м
[Cb cap Ac lent]
+11.0 +9.4 90 +6 +6 тепло 1005.4 998.0 +11.5 4
09 14.09 В 14-17
{21}
20 км {ливн. осадки} 9/9 300 м
[Cb cap]
+10.4 +9.2 92 +5 +5 тепло 1004.2 996.8
12 14.09 ЮВ 17-22
{23}
50 км {ливн. осадки} 6/6 600 м
[Cb cap]
+10.5 +8.9 90 +5 +5 тепло 1001.6 994.2
15 14.09 В 12-17
{23}
50 км 8/6 600 м
[Cb cap Ac cuf]
+10.2 +8.5 89 +5 +5 тепло 1000.4 993.0
18 14.09 В 9-14
{21}
11 км слабый ливневой дождь 10/10 300 м
[Cb cap]
+10.1 +9.5 96 +6 +6 тепло 998.6 991.3 +10.0 2
21 14.09 В 10-14
{19}
12 км слабый ливневой дождь 10/10 300 м
[Cb cap]
+11.4 +10.0 91 +7 +7 тепло 997.5 990.3 +9.8
00 15.09 ЮВ 11-14
{16}
9000 м слабый ливневой дождь 10/10 300 м
[Cb cap]
+11.3 +10.2 93 +7 +7 тепло 996.7 989.5
03 15.09 ЮВ 18-21
{22}
8000 м туман на расстоянии {ливн. осадки} 10/10 300 м
[Cb cap]
+10.6 +9.7 94 +5 +5 по сезону 995.0 987.7
06 15.09 ЮВ 14-17
{21}
8000 м слабый ливневой дождь 10/10 300 м
[Cb cap]
+10.3 +9.9 97 +5 +5 по сезону 995.7 988.4 +12.1 1
09 15.09 ЮВ 12-15
{19}
5000 м ливневой дождь 10/10 600 м
[Cb cap]
+10.4 +10.0 97 +6 +6 тепло 997.2 989.9
12 15.09 СЗ 8
{16}
5000 м ливневой дождь 10/10 600 м
[Cb cap]
+7.2 +6.8 97 +2 +2 по сезону 999.4 992.1
15 15.09 СЗ 10-13
{14}
15 км слабый ливневой дождь 10/10 600 м
[Cb cap]
+5.8 +5.1 95 -1 -1 по сезону 1001.4 994.0
18 15.09 СЗ 8
{13}
50 км {ливн. осадки} 9/9 600 м
[Cb cap]
+5.8 +2.6 80 0 0 по сезону 1003.5 996.0 +5.2 14
21 15.09 СЗ 7
{12}
50 км 8/5 600 м
[Cb cap Ac trans]
+6.8 +3.5 79 +2 +2 по сезону 1005.2 997.8
00 16.09 СЗ 8-10
{10}
50 км 3/0
[Ac trans Ci fib]
+9.4 +1.5 58 +6 +6 тепло 1005.9 998.5
03 16.09 З 4
{10}
50 км 3/1 600 м
[Cu hum Ac trans]
+10.2 +0.4 51 +8 +9 тепло 1006.7 999.3
06 16.09 ЮЗ 2
{6}
50 км 1/0
[Ac trans]
+9.7 +2.1 59 +8 +8 тепло 1007.1 999.7 +10.4
09 16.09 В 3
{4}
50 км 3/0
[Ac trans]
+6.0 +0.9 70 +3 +3 по сезону 1007.8 1000.3
12 16.09 ЮВ 4
{6}
50 км 3/0
[Ac trans]
+5.3 +2.3 81 +1 +1 по сезону 1007.9 1000.4
15 16.09 В 5
{6}
50 км 3/0
[Ac trans]
+5.0 +1.2 76 +1 +1 по сезону 1007.0 999.5
18 16.09 В 6
{7}
50 км 6/3 600 м
[Sc Ac lent Ci fib]
+5.5 +1.2 74 +1 +1 по сезону 1006.7 999.2 +4.7
21 16.09 В 4
{9}
20 км слабый ливневой дождь 10/10 600 м
[Cb cap]
+8.8 +5.8 81 +6 +6 тепло 1006.3 998.9
00 17.09 В 4
{6}
12 км слабый ливневой дождь 10/10 300 м
[Cb cap]
+8.8 +7.6 92 +6 +6 тепло 1005.9 998.5
03 17.09 СВ 2
{6}
20 км слабый ливневой дождь 10/10 300 м
[Cb cap]
+8.6 +7.3 92 +7 +7 тепло 1005.8 998.4
06 17.09 СЗ 3
{3}
20 км {ливн. осадки} 9/9 300 м
[Cb cap Ac trans Ci fib]
+8.1 +6.4 89 +5 +5 тепло 1006.2 998.8 +9.0 4
09 17.09 З 5
{11}
20 км в посл. час ливневой дождь 10/10 300 м
[Cb cap]
+6.9 +6.0 94 +3 +3 по сезону 1007.2 999.8
12 17.09 З 9-12
{13}
20 км слабый ливневой дождь 10/10 300 м
[Cb cap]
+6.5 +5.1 91 +1 +1 по сезону 1008.4 1001.0
15 17.09 З 10-13
{14}
20 км {ливн. осадки} 10/10 300 м
[Cb cap]
+6.2 +4.3 88 0 0 по сезону 1010.0 1002.5
18 17.09 ЮЗ 6
{13}
50 км {ливн. осадки} 9/9 600 м
[Cb cap Ac trans Ci fib]
+6.0 +3.6 85 +1 +1 по сезону 1011.5 1004.0 +5.8 1
21 17.09 ЮЗ 8-12
{12}
50 км {ливн. осадки} 9/8 600 м
[Cb cap Ci fib]
+7.3 +3.8 78 +2 +2 по сезону 1011.9 1004.5 +5.0
00 18.09 З 9-13
{13}
50 км {ливн. осадки} 9/9 600 м
[Cb cap]
+8.6 +4.0 73 +4 +4 по сезону 1012.9 1005.4
03 18.09 З 9-12
{13}
50 км 8/6 600 м
[Cb cap Ac trans]
+10.4 +3.8 64 +7 +7 тепло 1013.6 1006.1
06 18.09 З 7-10
{12}
50 км 3/3 600 м
[Cb cap]
+10.4 +4.1 65 +7 +7 тепло 1014.8 1007.3 +10.9 0.0
09 18.09 З 4
{10}
50 км 1/0
[Ci fib]
+8.2 +3.6 73 +5 +5 тепло 1015.8 1008.3
12 18.09 ЮВ 1
{7}
50 км ясно +6.2 +2.8 79 +5 +5 тепло 1016.3 1008.7
15 18.09 Ю 2
{3}
50 км ясно +7.8 +1.7 65 +6 +6 тепло 1017.0 1009.5
18 18.09 В 1
{3}
50 км 3/0
[Ci fib]
+6.4 +3.0 79 +5 +5 тепло 1017.4 1009.8 +5.7
21 18.09 ЮВ 3
{4}
50 км 8/3 300 м
[St Cs]
+8.2 +6.4 88 +5 +6 тепло 1017.5 1010.0
00 19.09 ЮВ 2
{4}
50 км 8/1 600 м
[Sc diur, vesp Cs]
+10.8 +2.1 55 +10 +13 тепло 1016.9 1009.4
03 19.09 ЮВ 5
{6}
50 км 9/1 600 м
[Sc Cc]
+10.2 +6.4 77 +7 +8 тепло 1016.3 1008.8
06 19.09 ЮВ 5
{8}
50 км 9/9 600 м
[Sc]
+9.6 +4.1 69 +7 +7 тепло 1015.9 1008.4 +11.4
09 19.09 ЮВ 5
{9}
50 км 9/9 600 м
[Sc]
+9.0 +4.0 71 +6 +6 тепло 1015.2 1007.7
12 19.09 ЮВ 9-12
{12}
50 км 9/9 600 м
[Cb cap]
+8.6 +4.0 73 +4 +4 тепло 1014.4 1006.9
15 19.09 В 9-12
{12}
50 км 9/9 600 м
[Cb cap]
+8.8 +6.7 87 +4 +4 тепло 1013.7 1006.2
18 19.09 В 7
{13}
20 км слабый ливневой дождь 10/10 600 м
[Cb cap]
+8.7 +7.7 93 +4 +4 тепло 1013.5 1006.0 +8.0 0.4
21 19.09 В 7
{10}
20 км в посл. час ливневой дождь 9/9 600 м
[Cb cap]
+9.5 +8.5 93 +5 +5 тепло 1013.0 1005.5
00 20.09 ЮВ 6
{10}
50 км {ливн. осадки} 9/8 600 м
[Cb cap Ac trans]
+10.9 +8.0 82 +8 +8 тепло 1013.2 1005.7
03 20.09 ЮВ 8
{9}
50 км 9/4 600 м
[Cb cap Ac trans]
+11.1 +8.2 82 +7 +8 тепло 1012.9 1005.4
06 20.09 ЮВ 7
{10}
50 км 9/8 600 м
[Cb cap Ac trans]
+9.9 +8.6 92 +6 +6 тепло 1013.4 1005.9 +11.6 0.5
09 20.09 ЮВ 5
{9}
50 км 9/6 600 м
[Cb cap Ac trans]
+9.1 +8.2 94 +6 +6 тепло 1013.9 1006.4
12 20.09 В 4
{8}
50 км 6/3 600 м
[Sc Ac trans]
+8.1 +7.3 95 +5 +5 тепло 1014.3 1006.8
15 20.09 З 1
{5}
50 км 8/5 600 м
[Sc Ac trans]
+8.5 +7.3 92 +8 +8 тепло 1014.2 1006.7
18 20.09 ЮВ 2
{3}
50 км {ливн. осадки} 9/6 600 м
[Cb cap Ac trans]
+7.8 +7.0 95 +6 +6 тепло 1014.5 1007.0 +7.4 0.3
21 20.09 ЮВ 2
{4}
50 км 9/6 600 м
[Cb cap Ac trans]
+9.5 +7.6 88 +8 +8 тепло 1014.1 1006.6

 

Местоположение метеостанции Анадырь (Чукотка, Россия): широта 64.78 долгота 177.50 высота над уровнем моря 61 м.

В архиве по умолчанию представлена погода в Анадыре за последнюю неделю. Архивные данные за месяц целиком и за предыдущие месяцы, начиная с января 2011 года, Вы можете получить, выбрав интересующий диапазон дат из раскрывающегося списка и нажав кнопку "Ввод!".


*Определитесь, кто Вы:
робот инопланетянин человек

Внимание! Время в таблицах - всемирное. Для получения местного времени необходимо прибавить поправку, которая в Анадыре равна 12 ч.

Смотрите также архив погоды в соседних городах и на ближайших метеорологических станциях:

Погода в Анадыре АМС (Чукотка, Россия) (7 км)
Погода в Канчалане (Чукотка, Россия) (58 км)
Погода в Танюрере (Чукотка, Россия) (147 км)
Погода в Эньмувееме (Чукотка, Россия) (263 км)
Погода в Маркове (Чукотка, Россия) (337 км)
Погода в Майской (Чукотка, Россия) (457 км)
Погода в Слаутном (Камчатский край, Россия) (504 км)
Погода в Паляваам-Глубокой (Чукотка, Россия) (505 км)
Погода в Илирнее (Чукотка, Россия) (513 км)
Погода в Комсомольской (Чукотка, Россия) (525 км)

Пояснения к столбцам:

Ветер - указаны скорость ветра в м/с - средняя за 10 мин, порывы в срок и между сроками (в фигурных скобках) и направление, откуда дует ветер: С - северный, СВ - северо-восточный, В - восточный, ЮВ - юго-восточный, Ю - южный, ЮЗ - юго-западный, З - западный, СЗ - северо-западный.
Видимость - горизонтальная дальность видимости в метрах или километрах. При видимости от 1 до 10 км при отсутствии осадков обычно наблюдается дымка, при ухудшении видимости до 1 км и менее - туман. В сухую погоду видимость может ухудшаться дымом, пылью или мглою.
Явления - указаны атмосферные явления, наблюдавшиеся в срок или в последний час перед сроком; фигурными скобками обозначены явления, наблюдавшиеся между сроками (за 1-3 часа до срока); квадратными скобками обозначены град или гололедные отложения с указанием их диаметра в мм.
Облачность - указаны через наклонную черту общая и нижняя облачность в баллах и высота нижней границы облаков в метрах; квадратными скобками обозначены формы облаков: Ci - перистые, Cs - перисто-слоистые, Cc - перисто-кучевые, Ac - высококучевые, As - высокослоистые, Sc - слоисто-кучевые, Ns - слоисто-дождевые, Cu - кучевые, Cb - кучево-дождевые. Подробнее классификацию облаков см. в Атласе облаков (PDF).
T - Температура воздуха - температура, измеренная на высоте 2 м над землей.
Td - Температура точки росы - температура, при понижении до которой содержащийся в воздухе водяной пар достигнет насыщения.
f - Относительная влажность воздуха - влажноcть воздуха, измеренная на высоте 2 м над землей.
Te - Эффективная температура - температура, которую ощущает одетый по сезону человек в тени. Характеристика душности погоды. При расчете учитывается влияние влажности воздуха и скорости ветра на теплоощущения человека.
Tes - Эффективная температура на солнце - температура, которую ощущает человек, с поправкой на солнечный нагрев. Характеристика знойности погоды. Зависит от высоты солнца над горизонтом, облачности и скорости ветра. Ночью, в пасмурную погоду, а также при ветре 12 м/с и более поправка равна нулю.
P - Атмосферное давление - приведенное к уровню моря атмосферное давление.
Po - Атмосферное давление - измеренное на уровне метеостанции атмосферное давление.
Tmin - Минимальная температура - минимум температуры воздуха на высоте 2 м над землей.
Tmax - Максимальная температура - максимум температуры воздуха на высоте 2 м над землей.
R - Количество осадков - Количество выпавших осадков за период времени, мм. При наведении курсора мыши на число - период времени, за который выпало указанное количество осадков.
R24 - Количество осадков - Количество выпавших осадков за 24 часа, мм.
S - Снежный покров - Высота снежного покрова, см. При наведении курсора мыши на число - состояние снежного покрова и степень покрытия местности в баллах.